Location: Bruay
(50.4788°N, 2.5507°E)
Time: 02:01:08
(UTC+00:00)

Daily predictions for brighter satellites

Satellite Brightness Start Highest point End
(mag) Time Altitude Azimuth Time Altitude Azimuth Time Altitude Azimuth
Cosmos 2219 Rocket 3.9 03:41:53 26° NNE 03:41:53 26° NNE 03:44:16 10° NNE
Cosmos 2237 Rocket 3.6 03:43:06 34° ESE 03:43:06 34° ESE 03:48:02 10° NE
BREEZE-M DEB (TANK) 4.2 03:55:50 74° SSW 03:55:50 74° SSW 04:00:39 10° ESE
Cosmos 2333 Rocket 3.6 04:04:36 31° NNE 04:04:36 31° NNE 04:07:30 10° NNE
Lacrosse 4 Rocket 3.8 04:04:27 21° ESE 04:04:27 21° ESE 04:07:43 10° ENE
FENGYUN 3A 4.3 04:00:10 10° NNE 04:04:53 52° ENE 04:04:53 52° ENE
Cosmos 2360 Rocket 4.0 04:15:25 20° N 04:15:25 20° N 04:17:30 10° NNE
Cosmos 1464 Rocket 4.2 04:13:47 38° SSE 04:16:10 66° E 04:22:19 10° NNE
SL-16 R/B 4.3 04:18:48 15° N 04:18:48 15° N 04:20:19 10° N
Cosmos 841 Rocket 4.1 04:16:53 53° E 04:16:53 53° E 04:21:33 10° NNE
Cosmos 1980 4.0 04:17:06 62° ESE 04:17:09 62° ESE 04:22:45 10° NE
Cosmos 2322 Rocket 4.3 04:20:13 15° N 04:20:13 15° N 04:21:48 10° N
Meteor 1-21 Rocket 4.5 04:17:53 55° NNE 04:19:01 69° ENE 04:24:50 10° SSE
COSMOS 2428 3.5 04:25:09 40° N 04:25:09 40° N 04:28:56 10° NNE
Cosmos 1072 Rocket 4.5 04:22:08 51° S 04:23:52 80° E 04:30:15 10° NNE
ATLAS CENTAUR R/B 3.1 04:31:44 26° E 04:31:44 26° E 04:34:13 10° ENE
METEOR-M 4.3 04:27:20 10° NNE 04:32:42 69° ESE 04:34:34 41° S
Cosmos 2084 Rocket 4.5 04:37:18 42° SE 04:37:18 42° SE 04:40:19 10° SE
ALOS 3.5 04:35:24 10° NNE 04:37:53 32° N 04:37:53 32° N
Cosmos 1602 Rocket 4.1 04:40:25 45° NNE 04:41:25 57° ENE 04:45:49 10° SSE
USA 215 3.3 04:35:44 10° ENE 04:42:10 62° NNW 04:43:15 55° WNW
ADEOS 3.8 04:37:52 10° NNE 04:43:06 69° ESE 04:47:40 14° S
USA 307 4.1 04:44:43 36° SSE 04:44:51 36° SE 04:48:45 10° ENE
GEOS 3 Rocket 4.3 04:39:42 10° ESE 04:44:56 54° NE 04:46:52 36° NNW
NOSS 0 Rocket 3.8 04:45:40 66° WSW 04:46:30 77° WNW 04:52:43 10° NNE
Nadezhda 4 Rocket 3.8 04:41:26 10° N 04:47:35 85° W 04:53:42 10° S
CZ-2C R/B 4.2 04:42:51 10° N 04:44:42 21° N 04:44:42 21° N
USA 305 3.8 04:50:49 40° SSE 04:51:06 41° SE 04:55:06 10° ENE
USA 308 3.8 04:53:18 40° SSE 04:53:48 41° SE 04:57:51 10° ENE
Cosmos 1943 Rocket 2.7 04:51:10 23° NNW 04:54:37 56° NE 05:00:12 10° SE
Cosmos 1400 Rocket 3.3 04:53:20 32° SSE 04:55:04 60° E 04:59:09 10° NNE
SL-4 R/B 2.7 04:55:30 44° SE 04:55:30 44° SE 04:59:05 10° ENE
Cosmos 2034 Rocket 3.9 04:51:23 10° S 04:57:45 89° W 05:04:09 10° N
Meteor 1-16 Rocket 4.4 04:52:46 10° S 04:58:42 81° E 05:04:38 10° NNE
Cosmos 1570 Rocket 3.9 04:57:36 51° SSW 04:58:57 85° WNW 05:04:15 10° NNE
SJ-12 4.1 04:57:13 10° NNE 05:01:23 72° ESE 05:04:12 20° S
Cosmos 540 Rocket 3.3 05:01:39 64° WNW 05:01:42 64° WNW 05:06:51 10° NNE
Cosmos 2298 Rocket 3.9 05:00:28 41° NNW 05:02:25 84° WSW 05:07:44 10° SSE
CZ-2C R/B 4.3 04:58:14 10° ESE 05:02:52 32° ENE 05:07:35 10° N
USA 306 3.6 05:02:36 43° S 05:03:19 48° SE 05:07:24 10° ENE
Cosmos 2369 Rocket 3.2 05:00:31 15° NNW 05:04:57 43° NE 05:10:16 10° ESE
Cosmos 1125 Rocket 3.6 05:01:52 24° NNW 05:05:10 74° ENE 05:10:29 10° SSE
NOSS 3-2 (A) 4.0 05:00:28 13° SSW 05:05:23 55° ESE 05:11:46 10° NE
Cosmos 1814 Rocket 3.8 05:03:50 42° SSW 05:05:37 83° WNW 05:10:48 10° NNE
CZ-4B R/B 3.3 05:06:52 10° NNE 05:10:28 56° E 05:14:11 10° S
Cosmos 1461 4.1 05:11:24 34° NNW 05:11:24 34° NNW 05:15:15 10° NNE
CZ-4B R/B 4.0 05:07:50 10° N 05:12:19 72° WNW 05:13:34 46° SW
COSMO-SKYMED 1 2.5 05:08:20 10° S 05:12:33 64° WSW 05:12:33 64° WSW
Cosmos 2278 Rocket 4.2 05:18:36 12° SSW 05:18:36 12° SSW 05:19:07 10° SSW
PSLV R/B 4.0 05:10:35 10° SSE 05:14:42 77° ENE 05:17:58 17° N
Cosmos 2228 4.4 05:14:18 10° SSE 05:18:15 39° E 05:22:13 10° NNE
SL-16 R/B 2.6 05:13:07 10° SSW 05:18:42 65° ESE 05:24:20 10° NE
Cosmos 972 Rocket 4.4 05:17:04 10° SSW 05:23:16 76° ESE 05:28:48 10° NNE
Cosmos 2219 Rocket 3.4 05:23:36 24° NW 05:23:36 24° NW 05:27:50 10° NNE
Cosmos 2026 Rocket 4.0 05:16:54 10° N 05:23:18 87° ENE 05:29:42 10° S
ATLAS 5 CENTAUR R/B 4.0 05:25:46 12° SSW 05:25:46 12° SSW 05:26:42 10° S
ERS-2 2.0 05:21:42 10° S 05:25:10 62° WSW 05:25:10 62° WSW
CENTAUR R/B 3.3 05:20:36 10° SSW 05:26:20 52° ESE 05:33:09 10° NE
Cosmos 2237 Rocket 2.4 05:24:59 36° WSW 05:26:52 50° NW 05:32:25 10° NNE
Cosmos 2208 Rocket 4.0 05:23:25 22° SW 05:26:57 64° WNW 05:32:20 10° NNE
H-2A R/B 2.9 05:23:44 10° NNE 05:27:28 69° ESE 05:31:12 10° S
Cosmos 1953 4.1 05:32:23 18° NNW 05:32:23 18° NNW 05:33:35 10° N
Meteor PRIRODA 3.5 05:28:30 10° NNE 05:32:09 87° WNW 05:35:47 10° SSW
Cosmos 1606 Rocket 4.4 05:30:28 10° S 05:34:39 52° E 05:38:53 10° NNE
Lacrosse 4 Rocket 1.5 05:40:48 30° WSW 05:42:45 58° NW 05:47:07 10° NNE
Meteor 1-11 4.1 05:38:37 10° NNW 05:44:08 63° W 05:49:38 10° S
FENGYUN 3A 4.5 05:40:59 10° N 05:45:31 28° WNW 05:46:27 27° WNW
Cosmos 1300 2.6 05:42:43 10° S 05:46:31 88° E 05:50:22 10° N
Cosmos 2333 Rocket 3.7 05:46:36 18° NW 05:47:16 19° NNW 05:51:12 10° N
SAR-Lupe-4 3.8 05:45:31 10° S 05:48:58 44° W 05:50:19 29° NW
deb Chang Zheng 4 3.6 05:45:44 10° N 05:49:53 52° WNW 05:53:59 10° SW
Cosmos 1315 Rocket 2.8 05:47:11 10° S 05:51:04 83° E 05:55:01 10° NNE
Meteor 1-31 Rocket 3.8 05:49:52 10° N 05:52:39 26° NW 05:52:39 26° NW
Cosmos 2297 4.1 05:50:12 20° NW 05:53:47 41° WSW 05:59:07 10° S
Cosmos 1346 Rocket 3.1 05:54:23 16° NNW 05:57:15 43° W 06:01:02 10° SSW
MOS 1 Rocket 3.9 05:54:02 10° SSW 05:58:24 34° W 06:02:32 10° NNW
Cosmos 2360 Rocket 4.2 05:57:10 11° NNW 05:58:32 11° NNW 06:00:19 10° N
Cosmos 841 Rocket 4.4 05:57:01 23° W 05:58:43 28° NW 06:03:10 10° N
NOSS 5 (C) 4.5 05:57:05 14° SW 06:00:35 68° NW 06:03:49 10° NE
USA 238 DEB 3.6 05:54:25 10° SW 06:01:02 87° NW 06:08:03 10° NE
USA 238 3.6 05:54:31 10° SW 06:01:09 87° NW 06:08:09 10° NE
Cosmos 836 Rocket 4.5 05:56:06 10° SSW 06:01:22 89° WNW 06:06:39 10° NNE
Cosmos 1980 4.5 05:58:59 21° W 06:01:39 31° NW 06:06:39 10° NNE
Cosmos 1758 Rocket 3.9 05:57:52 10° NNW 06:02:06 42° W 06:06:17 10° SSW
FALCON 9 DEB 3.4 06:01:26 29° WNW 06:02:54 54° N 06:06:17 10° ENE
Cosmos 1689 Rocket 3.2 06:05:15 10° SSW 06:07:24 24° WSW 06:07:24 24° WSW
Cosmos 1441 Rocket 4.0 06:04:54 10° N 06:08:48 54° ENE 06:12:38 10° SSE
COSMOS 2428 4.2 06:07:11 16° NW 06:08:49 18° NNW 06:12:35 10° N
ATLAS CENTAUR R/B 1.6 06:07:57 22° W 06:09:47 37° NW 06:13:14 10° NNE
SL-19 R/B 4.4 06:10:05 10° NNE 06:13:53 66° ESE 06:17:09 10° S
BREEZE M DEB (TANK) 3.5 06:12:09 10° SW 06:14:24 36° SE 06:19:07 10° E
ALOS 4.0 06:14:25 10° NNW 06:16:23 14° NW 06:16:23 14° NW
YAOGAN 6 2.8 06:14:09 10° N 06:17:44 47° WNW 06:21:17 10° SW
Cosmos 1892 2.6 06:13:53 10° NNW 06:17:45 83° W 06:21:36 10° S
Cosmos 1184 Rocket 4.1 06:15:05 10° N 06:18:13 42° ENE 06:21:20 10° SSE
Spot 2 3.9 06:14:28 10° NNE 06:18:31 88° E 06:22:38 10° SSW
Cosmos 1726 Rocket 3.4 06:14:35 10° SSW 06:18:54 72° WNW 06:23:14 10° N
Cosmos 2058 Rocket 3.3 06:16:30 10° S 06:20:54 77° E 06:25:22 10° NNE
Cosmos 1603 4.5 06:16:27 10° S 06:21:55 56° ESE 06:27:27 10° NE
FALCON 9 DEB 3.4 06:19:22 10° SW 06:22:26 59° SSE 06:25:29 10° ENE
GEOS 3 Rocket 4.2 06:17:58 10° SSE 06:23:03 42° WSW 06:27:59 11° NW
USA 307 2.9 06:20:52 13° WSW 06:24:41 73° NNW 06:28:56 10° ENE
USA 215 3.7 06:18:27 10° ENE 06:24:43 51° N 06:30:36 12° WNW
CZ-4B DEB 4.2 06:22:16 10° NNE 06:27:50 76° WNW 06:33:22 10° SSW
In-Cosmos 22 Rocket 4.1 06:22:41 10° NNW 06:28:06 62° W 06:33:21 10° S
PSLV R/B 4.0 06:24:40 10° N 06:28:33 49° WNW 06:32:28 10° SW
Cosmos 2292 Rocket 3.1 06:27:03 10° NNW 06:29:56 43° W 06:33:10 10° SSW
USA 305 2.9 06:26:57 11° W 06:30:59 69° NNW 06:35:13 10° ENE
Cosmos 2279 Rocket 4.0 06:24:52 10° SSW 06:31:04 64° WNW 06:37:19 10° N
FALCON 9 DEB 3.3 06:28:05 10° SW 06:31:11 62° SSE 06:34:17 10° ENE
Cosmos 1408 2.4 06:27:52 10° NNW 06:31:29 79° W 06:35:06 10° S
Cosmos 1400 Rocket 4.4 06:29:14 10° WSW 06:31:56 17° WNW 06:34:39 10° NNW
Cosmos 2098 Rocket 4.2 06:28:39 10° NNW 06:33:39 31° W 06:37:45 10° SW
USA 308 2.9 06:29:28 10° W 06:33:42 69° NNW 06:37:59 10° ENE
Okean O Rocket 1.8 06:29:29 10° NNE 06:33:51 76° ESE 06:38:11 10° S
Cosmos 1825 Rocket 4.5 06:30:46 10° NNW 06:34:34 28° W 06:38:22 10° SSW
SL-4 R/B 1.9 06:31:05 11° W 06:34:44 80° N 06:38:57 10° E
SMAP 3.0 06:31:15 10° NNE 06:35:56 78° WNW 06:40:35 10° SSW
Cosmos 2263 4.3 06:31:55 10° NW 06:37:32 63° WSW 06:43:08 10° SSE
Cosmos 1943 Rocket 3.1 06:33:15 10° NW 06:38:05 29° WSW 06:42:54 10° SSW
H-2A R/B 2.6 06:35:38 10° N 06:40:09 70° WNW 06:44:37 10° SSW
Iridium 4 Rocket 4.2 06:35:54 10° S 06:41:43 71° E 06:47:37 10° N
Cosmos 1939 Rocket 3.3 06:38:55 10° NNE 06:42:49 66° ESE 06:46:40 10° S
CZ-2C R/B 2.9 06:37:54 10° S 06:42:59 47° W 06:48:12 10° NNW
USA 306 3.0 06:39:03 10° W 06:43:17 63° NNW 06:47:29 10° ENE
Envisat 3.5 06:39:47 10° N 06:44:29 38° WNW 06:49:10 10° SW
CZ-4B R/B 4.3 06:43:03 10° NNW 06:45:13 15° WNW 06:47:26 10° W
Cosmos 2369 Rocket 2.7 06:43:47 10° NW 06:48:57 39° WSW 06:54:05 10° S
Cosmos 1076 Rocket 3.7 06:45:14 10° N 06:49:31 74° ENE 06:53:45 10° SSE
Cosmos 773 Rocket 4.1 06:44:41 10° SSW 06:49:55 83° ESE 06:55:09 10° NNE
Meteor 2-10 Rocket 3.8 06:49:30 10° SSW 06:55:19 70° WNW 07:01:02 10° N
Cosmos 2228 4.0 06:52:30 10° WSW 06:55:57 24° WNW 06:59:25 10° NNW
NOSS 3-2 (A) 3.9 06:50:43 10° WSW 06:56:26 46° NNW 07:03:05 10° NE
ERBS 2.2 06:54:20 10° WSW 06:57:37 90° ESE 07:00:55 10° ENE
DMSP B5D2-2 4.4 06:55:57 10° S 07:00:59 46° W 07:06:04 10° NNW
Cosmos 2266 Rocket 4.1 06:56:05 10° NNW 07:01:58 55° W 07:07:50 10° SSW
CZ-4B R/B 3.3 06:56:24 10° NNE 07:02:02 69° WNW 07:07:34 10° SSW
